• In Hungary
  • List of Countries
  • For 7 days
  • Water Temperature
  • Satellite Maps
  • Weather Map
  • News
  • Weather Widgets
  • user-avatar
    Login

    Hourly Weather Alkadar

    Today, 23 July, Monday

    Time Temperature Precipitation Wind Pressure Humidity
    00:00 +22°C° 0 mm 1 mps 701 mmHg 68%
    01:00 +22°C° 0 mm 1 mps 701 mmHg 68%
    02:00 +22°C° 0 mm 1 mps 701 mmHg 67%
    03:00 +22°C° 0 mm 1 mps 701 mmHg 67%
    04:00 +23°C° 0 mm 1 mps 701 mmHg 65%
    05:00 +24°C° 0 mm 1 mps 701 mmHg 63%
    06:00 +24°C° 0 mm 1 mps 701 mmHg 61%
    07:00 +26°C° 0 mm 1 mps 701 mmHg 56%
    08:00 +27°C° 0 mm 2 mps 702 mmHg 52%
    09:00 +29°C° 0 mm 2 mps 702 mmHg 47%
    10:00 +30°C° 0.1 mm 3 mps 702 mmHg 46%
    11:00 +30°C° 0.1 mm 3 mps 701 mmHg 44%
    12:00 +32°C° 0.1 mm 4 mps 701 mmHg 43%
    13:00 +32°C° 0.2 mm 4 mps 701 mmHg 45%
    14:00 +30°C° 0.2 mm 4 mps 701 mmHg 47%
    15:00 +30°C° 0.2 mm 4 mps 700 mmHg 48%
    16:00 +29°C° 0.1 mm 3 mps 700 mmHg 53%
    17:00 +28°C° 0.1 mm 3 mps 700 mmHg 58%
    18:00 +27°C° 0.1 mm 2 mps 700 mmHg 62%
    19:00 +26°C° 0.2 mm 2 mps 700 mmHg 67%
    20:00 +24°C° 0.2 mm 1 mps 700 mmHg 72%
    21:00 +23°C° 0.2 mm 1 mps 700 mmHg 77%
    22:00 +23°C° 0 mm 1 mps 700 mmHg 74%
    23:00 +23°C° 0 mm 1 mps 700 mmHg 72%

    Tomorrow, 24 July, Tuesday

    Time Temperature Precipitation Wind Pressure Humidity
    00:00 +23°C° 0 mm 1 mps 700 mmHg 70%
    01:00 +23°C° 0 mm 1 mps 700 mmHg 68%
    02:00 +23°C° 0 mm 2 mps 700 mmHg 67%
    03:00 +23°C° 0 mm 2 mps 700 mmHg 66%
    04:00 +24°C° 0 mm 2 mps 700 mmHg 65%
    05:00 +25°C° 0 mm 1 mps 700 mmHg 64%
    06:00 +25°C° 0 mm 1 mps 701 mmHg 62%
    07:00 +27°C° 0 mm 2 mps 701 mmHg 59%
    08:00 +28°C° 0 mm 3 mps 701 mmHg 56%
    09:00 +29°C° 0 mm 3 mps 701 mmHg 52%
    10:00 +30°C° 0 mm 3 mps 701 mmHg 52%
    11:00 +31°C° 0 mm 3 mps 701 mmHg 51%
    12:00 +33°C° 0 mm 4 mps 701 mmHg 50%
    13:00 +33°C° 0 mm 4 mps 701 mmHg 51%
    14:00 +33°C° 0 mm 4 mps 701 mmHg 53%
    15:00 +32°C° 0 mm 4 mps 701 mmHg 54%
    16:00 +31°C° 0 mm 3 mps 701 mmHg 59%
    17:00 +30°C° 0 mm 3 mps 701 mmHg 63%
    18:00 +29°C° 0 mm 2 mps 701 mmHg 67%
    19:00 +27°C° 0 mm 2 mps 701 mmHg 70%
    20:00 +26°C° 0 mm 1 mps 701 mmHg 72%
    21:00 +24°C° 0 mm 1 mps 702 mmHg 75%
    22:00 +24°C° 0 mm 1 mps 701 mmHg 69%
    23:00 +24°C° 0 mm 1 mps 701 mmHg 64%

    Day after tomorrow, 25 July, Wednesday

    Time Temperature Precipitation Wind Pressure Humidity
    00:00 +24°C° 0 mm 2 mps 701 mmHg 58%
    01:00 +24°C° 0 mm 2 mps 701 mmHg 55%
    02:00 +24°C° 0 mm 2 mps 701 mmHg 53%
    03:00 +24°C° 0 mm 2 mps 701 mmHg 50%
    04:00 +25°C° 0 mm 2 mps 701 mmHg 50%
    05:00 +26°C° 0 mm 2 mps 701 mmHg 50%
    06:00 +27°C° 0 mm 2 mps 701 mmHg 51%
    07:00 +29°C° 0 mm 2 mps 702 mmHg 46%
    08:00 +31°C° 0 mm 2 mps 702 mmHg 42%
    09:00 +34°C° 0 mm 2 mps 702 mmHg 37%
    10:00 +35°C° 0 mm 3 mps 702 mmHg 36%
    11:00 +36°C° 0 mm 3 mps 702 mmHg 35%
    12:00 +37°C° 0 mm 4 mps 702 mmHg 34%
    13:00 +37°C° 0 mm 4 mps 701 mmHg 35%
    14:00 +37°C° 0 mm 4 mps 701 mmHg 36%
    15:00 +37°C° 0 mm 4 mps 701 mmHg 38%
    16:00 +36°C° 0 mm 4 mps 701 mmHg 43%
    17:00 +34°C° 0 mm 3 mps 701 mmHg 48%
    18:00 +33°C° 0 mm 3 mps 701 mmHg 53%
    19:00 +30°C° 0 mm 3 mps 701 mmHg 56%
    20:00 +29°C° 0 mm 2 mps 701 mmHg 58%
    21:00 +27°C° 0 mm 2 mps 701 mmHg 61%
    22:00 +27°C° 0 mm 2 mps 701 mmHg 58%
    23:00 +27°C° 0 mm 2 mps 701 mmHg 55%

    26 July, Thursday

    Time Temperature Precipitation Wind Pressure Humidity
    00:00 +27°C° 0 mm 2 mps 701 mmHg 52%
    01:00 +27°C° 0 mm 2 mps 701 mmHg 50%
    02:00 +27°C° 0 mm 2 mps 701 mmHg 48%
    03:00 +27°C° 0 mm 2 mps 701 mmHg 46%
    04:00 +27°C° 0 mm 2 mps 701 mmHg 46%
    05:00 +28°C° 0 mm 2 mps 701 mmHg 46%
    06:00 +28°C° 0 mm 2 mps 702 mmHg 46%
    07:00 +30°C° 0 mm 3 mps 702 mmHg 42%
    08:00 +34°C° 0 mm 3 mps 702 mmHg 38%
    09:00 +36°C° 0 mm 4 mps 703 mmHg 34%
    10:00 +37°C° 0 mm 5 mps 703 mmHg 33%
    11:00 +38°C° 0 mm 6 mps 703 mmHg 32%
    12:00 +39°C° 0 mm 6 mps 703 mmHg 30%
    13:00 +39°C° 0 mm 6 mps 702 mmHg 31%
    14:00 +39°C° 0 mm 6 mps 702 mmHg 31%
    15:00 +39°C° 0 mm 6 mps 702 mmHg 31%
    16:00 +36°C° 0 mm 5 mps 702 mmHg 34%
    17:00 +35°C° 0 mm 4 mps 702 mmHg 37%
    18:00 +33°C° 0 mm 4 mps 702 mmHg 40%
    19:00 +31°C° 0.1 mm 3 mps 702 mmHg 42%
    20:00 +29°C° 0.1 mm 2 mps 702 mmHg 45%
    21:00 +28°C° 0.1 mm 1 mps 702 mmHg 47%
    22:00 +27°C° 0.1 mm 1 mps 702 mmHg 48%
    23:00 +27°C° 0.1 mm 2 mps 702 mmHg 48%

    27 July, Friday

    Time Temperature Precipitation Wind Pressure Humidity
    00:00 +27°C° 0.1 mm 2 mps 702 mmHg 48%
    01:00 +26°C° 0 mm 2 mps 702 mmHg 47%
    02:00 +26°C° 0 mm 2 mps 702 mmHg 46%
    03:00 +26°C° 0 mm 2 mps 702 mmHg 45%
    04:00 +27°C° 0 mm 2 mps 702 mmHg 45%
    05:00 +28°C° 0 mm 2 mps 703 mmHg 45%
    06:00 +28°C° 0 mm 2 mps 703 mmHg 44%
    07:00 +30°C° 0 mm 3 mps 703 mmHg 39%
    08:00 +33°C° 0 mm 4 mps 704 mmHg 34%
    09:00 +35°C° 0 mm 5 mps 704 mmHg 29%
    10:00 +36°C° 0 mm 5 mps 704 mmHg 27%
    11:00 +38°C° 0 mm 6 mps 704 mmHg 26%
    12:00 +39°C° 0 mm 6 mps 704 mmHg 25%
    13:00 +38°C° 0 mm 6 mps 703 mmHg 26%
    14:00 +38°C° 0 mm 7 mps 703 mmHg 26%
    15:00 +38°C° 0 mm 7 mps 703 mmHg 27%
    16:00 +35°C° 0 mm 6 mps 703 mmHg 30%
    17:00 +34°C° 0 mm 5 mps 703 mmHg 34%
    18:00 +33°C° 0 mm 4 mps 703 mmHg 37%
    19:00 +30°C° 0 mm 4 mps 703 mmHg 40%
    20:00 +28°C° 0 mm 3 mps 703 mmHg 43%
    21:00 +26°C° 0 mm 2 mps 703 mmHg 46%
    22:00 +26°C° 0 mm 2 mps 703 mmHg 46%
    23:00 +25°C° 0 mm 2 mps 703 mmHg 46%

    28 July, Saturday

    Time Temperature Precipitation Wind Pressure Humidity
    00:00 +25°C° 0 mm 2 mps 702 mmHg 46%
    01:00 +25°C° 0 mm 2 mps 702 mmHg 44%
    02:00 +25°C° 0 mm 1 mps 702 mmHg 42%
    03:00 +25°C° 0 mm 1 mps 702 mmHg 40%
    04:00 +26°C° 0 mm 1 mps 702 mmHg 41%
    05:00 +26°C° 0 mm 2 mps 703 mmHg 41%
    06:00 +27°C° 0 mm 2 mps 703 mmHg 41%
    07:00 +29°C° 0 mm 3 mps 703 mmHg 36%
    08:00 +32°C° 0 mm 4 mps 703 mmHg 30%
    09:00 +35°C° 0 mm 5 mps 703 mmHg 25%
    10:00 +36°C° 0 mm 5 mps 703 mmHg 24%
    11:00 +36°C° 0 mm 6 mps 703 mmHg 23%
    12:00 +38°C° 0 mm 6 mps 703 mmHg 22%
    13:00 +38°C° 0 mm 6 mps 703 mmHg 23%
    14:00 +38°C° 0 mm 6 mps 702 mmHg 24%
    15:00 +36°C° 0 mm 6 mps 702 mmHg 25%
    16:00 +35°C° 0 mm 6 mps 702 mmHg 29%
    17:00 +34°C° 0 mm 5 mps 702 mmHg 32%
    18:00 +32°C° 0 mm 4 mps 702 mmHg 35%
    19:00 +29°C° 0 mm 4 mps 702 mmHg 37%
    20:00 +28°C° 0 mm 3 mps 702 mmHg 39%
    21:00 +26°C° 0 mm 2 mps 702 mmHg 41%
    22:00 +25°C° 0 mm 2 mps 702 mmHg 41%
    23:00 +25°C° 0 mm 2 mps 702 mmHg 41%
    Show more